| time (UTC) | temp F | wind direction | speed MPH | gust MPH | rain 1hr in | rain 24hr in | rain mn in | humidity % | barometer mb |
| 20260505121739 | 75 | 135 | 5.0 | 8.0 | 0.00 | 0.00 | 0.00 | 92 | 1010.5 |
| 20260505121236 | 75 | 147 | 0.0 | 1.0 | 0.00 | 0.00 | 0.00 | 92 | 1010.5 |
| 20260505120732 | 75 | 157 | 2.0 | 2.0 | 0.00 | 0.00 | 0.00 | 93 | 1010.4 |
| 20260505120228 | 74 | 188 | 3.0 | 5.0 | 0.00 | 0.00 | 0.00 | 93 | 1010.3 |
| 20260505115727 | 74 | 140 | 2.0 | 3.0 | 0.00 | 0.00 | 0.00 | 93 | 1010.1 |
| 20260505115225 | 74 | 151 | 0.0 | 1.0 | 0.00 | 0.00 | 0.00 | 93 | 1010.1 |
| 20260505114722 | 74 | 162 | 4.0 | 5.0 | 0.00 | 0.00 | 0.00 | 93 | 1010.2 |
| 20260505114218 | 74 | 158 | 1.0 | 2.0 | 0.00 | 0.00 | 0.00 | 93 | 1010.2 |
| 20260505113715 | 74 | 167 | 0.0 | 1.0 | 0.00 | 0.00 | 0.00 | 93 | 1010.2 |
| 20260505113212 | 74 | 150 | 0.0 | 1.0 | 0.00 | 0.00 | 0.00 | 93 | 1010.5 |
| 20260505112708 | 74 | 146 | 2.0 | 3.0 | 0.00 | 0.00 | 0.00 | 93 | 1010.6 |
| 20260505112206 | 74 | 200 | 1.0 | 2.0 | 0.00 | 0.00 | 0.00 | 93 | 1010.6 |
| 20260505111705 | 74 | 135 | 0.0 | 1.0 | 0.00 | 0.00 | 0.00 | 93 | 1010.4 |
| 20260505111201 | 74 | 172 | 1.0 | 2.0 | 0.00 | 0.00 | 0.00 | 93 | 1010.5 |
| 20260505110657 | 74 | 180 | 0.0 | 1.0 | 0.00 | 0.00 | 0.00 | 93 | 1010.3 |
| 20260505110155 | 74 | 167 | 1.0 | 1.0 | 0.00 | 0.00 | 0.00 | 93 | 1010.2 |
| 20260505102131 | 74 | 154 | 2.0 | 2.0 | 0.00 | 0.00 | 0.00 | 93 | 1010.3 |
| 20260505101629 | 73 | 151 | 1.0 | 2.0 | 0.00 | 0.00 | 0.00 | 93 | 1010.1 |
| 20260505101125 | 73 | 153 | 1.0 | 2.0 | 0.00 | 0.00 | 0.00 | 93 | 1010.2 |
| 20260505100621 | 73 | 161 | 1.0 | 2.0 | 0.00 | 0.00 | 0.00 | 93 | 1010.2 |
| 20260505100118 | 73 | 128 | 2.0 | 3.0 | 0.00 | 0.00 | 0.00 | 93 | 1010.2 |
| 20260505095614 | 73 | 168 | 5.0 | 6.0 | 0.00 | 0.00 | 0.00 | 93 | 1010.4 |
| 20260505095111 | 73 | 150 | 1.0 | 1.0 | 0.00 | 0.00 | 0.00 | 92 | 1010.4 |
| 20260505094608 | 73 | 153 | 2.0 | 3.0 | 0.00 | 0.00 | 0.00 | 92 | 1010.5 |
| 20260505094104 | 73 | 153 | 1.0 | 1.0 | 0.00 | 0.00 | 0.00 | 92 | 1010.5 |
| 20260505093600 | 73 | 194 | 1.0 | 1.0 | 0.00 | 0.00 | 0.00 | 92 | 1010.3 |
| 20260505093058 | 73 | 181 | 1.0 | 2.0 | 0.00 | 0.00 | 0.00 | 92 | 1010.5 |
| 20260505092555 | 73 | 198 | 1.0 | 1.0 | 0.00 | 0.00 | 0.00 | 92 | 1010.3 |
| 20260505092054 | 73 | 149 | 1.0 | 2.0 | 0.00 | 0.00 | 0.00 | 92 | 1010.4 |
| 20260505091550 | 73 | 158 | 1.0 | 1.0 | 0.00 | 0.00 | 0.00 | 92 | 1010.5 |
| 20260505091048 | 73 | 152 | 1.0 | 3.0 | 0.00 | 0.00 | 0.00 | 92 | 1010.4 |
| 20260505090546 | 73 | 151 | 1.0 | 2.0 | 0.00 | 0.00 | 0.00 | 92 | 1010.5 |
| 20260505090043 | 73 | 151 | 0.0 | 1.0 | 0.00 | 0.00 | 0.00 | 92 | 1010.5 |
| 20260505085541 | 73 | 177 | 2.0 | 3.0 | 0.00 | 0.00 | 0.00 | 92 | 1010.3 |
| 20260505085039 | 73 | 158 | 1.0 | 3.0 | 0.00 | 0.00 | 0.00 | 92 | 1010.3 |
| 20260505084537 | 73 | 145 | 1.0 | 1.0 | 0.00 | 0.00 | 0.00 | 92 | 1010.1 |
| 20260505084035 | 73 | 261 | 1.0 | 5.0 | 0.00 | 0.00 | 0.00 | 91 | 1010.3 |
| 20260505083531 | 73 | 160 | 2.0 | 2.0 | 0.00 | 0.00 | 0.00 | 91 | 1010.3 |
| 20260505083028 | 73 | 145 | 2.0 | 3.0 | 0.00 | 0.00 | 0.00 | 91 | 1010.5 |
| 20260505082524 | 74 | 148 | 1.0 | 1.0 | 0.00 | 0.00 | 0.00 | 91 | 1010.5 |
| 20260505082021 | 74 | 124 | 1.0 | 1.0 | 0.00 | 0.00 | 0.00 | 90 | 1010.6 |
| 20260505081518 | 74 | 161 | 3.0 | 5.0 | 0.00 | 0.00 | 0.00 | 90 | 1010.6 |
| 20260505081014 | 74 | 168 | 2.0 | 2.0 | 0.00 | 0.00 | 0.00 | 90 | 1010.8 |
| 20260505080511 | 74 | 157 | 1.0 | 1.0 | 0.00 | 0.00 | 0.00 | 90 | 1010.6 |
| 20260505080007 | 74 | 176 | 1.0 | 2.0 | 0.00 | 0.00 | 0.00 | 90 | 1010.7 |
| 20260505075503 | 74 | 136 | 1.0 | 1.0 | 0.00 | 0.00 | 0.00 | 89 | 1010.9 |
| 20260505075000 | 74 | 154 | 1.0 | 2.0 | 0.00 | 0.00 | 0.00 | 89 | 1010.8 |
| 20260505074458 | 74 | 144 | 3.0 | 5.0 | 0.00 | 0.00 | 0.00 | 89 | 1010.7 |
| 20260505073955 | 74 | 147 | 1.0 | 2.0 | 0.00 | 0.00 | 0.00 | 89 | 1010.9 |
| 20260505073452 | 73 | 148 | 2.0 | 2.0 | 0.00 | 0.00 | 0.00 | 89 | 1010.9 |
| 20260505072949 | 73 | 167 | 2.0 | 2.0 | 0.00 | 0.00 | 0.00 | 89 | 1010.8 |
| 20260505072445 | 73 | 156 | 1.0 | 2.0 | 0.00 | 0.00 | 0.00 | 89 | 1010.9 |
| 20260505071942 | 73 | 137 | 1.0 | 2.0 | 0.00 | 0.00 | 0.00 | 88 | 1010.9 |
| 20260505071437 | 73 | 156 | 1.0 | 1.0 | 0.00 | 0.00 | 0.00 | 88 | 1011.2 |
| 20260505070936 | 74 | 134 | 2.0 | 2.0 | 0.00 | 0.00 | 0.00 | 88 | 1011.1 |
| 20260505070432 | 74 | 135 | 3.0 | 5.0 | 0.00 | 0.00 | 0.00 | 88 | 1011.3 |
| 20260505065928 | 74 | 186 | 2.0 | 2.0 | 0.00 | 0.00 | 0.00 | 88 | 1011.4 |
| 20260505065425 | 74 | 161 | 2.0 | 2.0 | 0.00 | 0.00 | 0.00 | 88 | 1011.6 |
| 20260505064921 | 74 | 148 | 1.0 | 2.0 | 0.00 | 0.00 | 0.00 | 88 | 1011.6 |
| 20260505064419 | 73 | 172 | 1.0 | 2.0 | 0.00 | 0.00 | 0.00 | 88 | 1011.5 |
| 20260505063917 | 73 | 144 | 2.0 | 3.0 | 0.00 | 0.00 | 0.00 | 88 | 1011.6 |
| 20260505063413 | 73 | 157 | 1.0 | 1.0 | 0.00 | 0.00 | 0.00 | 88 | 1011.8 |
| 20260505062909 | 73 | 154 | 0.0 | 0.0 | 0.00 | 0.00 | 0.00 | 88 | 1011.8 |
| 20260505062407 | 73 | 162 | 1.0 | 2.0 | 0.00 | 0.00 | 0.00 | 88 | 1011.8 |
| 20260505061903 | 73 | 161 | 3.0 | 3.0 | 0.00 | 0.00 | 0.00 | 88 | 1011.9 |
| 20260505061402 | 73 | 148 | 2.0 | 3.0 | 0.00 | 0.00 | 0.00 | 88 | 1011.9 |
| 20260505060859 | 73 | 161 | 2.0 | 2.0 | 0.00 | 0.00 | 0.00 | 89 | 1011.9 |
| 20260505060355 | 73 | 150 | 0.0 | 1.0 | 0.00 | 0.00 | 0.00 | 89 | 1012.0 |
| 20260505055852 | 72 | 153 | 3.0 | 3.0 | 0.00 | 0.00 | 0.00 | 89 | 1011.9 |
| 20260505055348 | 72 | 140 | 3.0 | 3.0 | 0.00 | 0.00 | 0.00 | 89 | 1012.0 |
| 20260505054845 | 72 | 163 | 1.0 | 1.0 | 0.00 | 0.00 | 0.00 | 89 | 1012.1 |
| 20260505054343 | 72 | 172 | 2.0 | 2.0 | 0.00 | 0.00 | 0.00 | 89 | 1011.9 |
| 20260505053841 | 72 | 184 | 2.0 | 3.0 | 0.00 | 0.00 | 0.00 | 89 | 1011.9 |
| 20260505053337 | 72 | 147 | 0.0 | 0.0 | 0.00 | 0.00 | 0.00 | 88 | 1012.0 |
| 20260505052834 | 72 | 144 | 2.0 | 3.0 | 0.00 | 0.00 | 0.00 | 88 | 1012.1 |
| 20260505052331 | 72 | 117 | 5.0 | 6.0 | 0.00 | 0.00 | 0.00 | 88 | 1012.1 |
| 20260505051828 | 72 | 154 | 1.0 | 2.0 | 0.00 | 0.00 | 0.00 | 88 | 1012.1 |
| 20260505051325 | 72 | 163 | 3.0 | 5.0 | 0.00 | 0.00 | 0.00 | 88 | 1012.0 |
| 20260505050823 | 72 | 152 | 1.0 | 2.0 | 0.00 | 0.00 | 0.00 | 88 | 1012.1 |
| 20260505050322 | 72 | 146 | 0.0 | 1.0 | 0.00 | 0.00 | 0.00 | 88 | 1012.3 |
| 20260505041752 | 72 | 145 | 2.0 | 2.0 | 0.00 | 0.00 | 0.00 | 87 | 1012.4 |
| 20260505041248 | 72 | 147 | 1.0 | 1.0 | 0.00 | 0.00 | 0.00 | 87 | 1012.5 |
| 20260505040746 | 72 | 148 | 1.0 | 1.0 | 0.00 | 0.00 | 0.00 | 87 | 1012.5 |
| 20260505040243 | 72 | 166 | 1.0 | 1.0 | 0.00 | 0.00 | 0.00 | 87 | 1012.5 |
| 20260505035740 | 71 | 138 | 1.0 | 1.0 | 0.00 | 0.00 | 0.00 | 87 | 1012.6 |
| 20260505035236 | 72 | 133 | 2.0 | 2.0 | 0.00 | 0.00 | 0.00 | 87 | 1012.7 |
| 20260505034733 | 72 | 171 | 1.0 | 2.0 | 0.00 | 0.00 | 0.00 | 87 | 1012.9 |
| 20260505034230 | 72 | 154 | 2.0 | 2.0 | 0.00 | 0.00 | 0.00 | 87 | 1012.7 |
| 20260505033727 | 71 | 163 | 2.0 | 2.0 | 0.00 | 0.00 | 0.00 | 87 | 1012.8 |
| 20260505033225 | 71 | 142 | 1.0 | 2.0 | 0.00 | 0.00 | 0.00 | 87 | 1012.6 |
| 20260505032722 | 71 | 156 | 2.0 | 3.0 | 0.00 | 0.00 | 0.00 | 87 | 1012.6 |
| 20260505032218 | 71 | 122 | 2.0 | 2.0 | 0.00 | 0.00 | 0.00 | 87 | 1012.6 |
| 20260505031716 | 71 | 166 | 1.0 | 1.0 | 0.00 | 0.00 | 0.00 | 87 | 1012.8 |
| 20260505031212 | 71 | 149 | 1.0 | 2.0 | 0.00 | 0.00 | 0.00 | 87 | 1012.8 |
| 20260505030709 | 71 | 155 | 1.0 | 1.0 | 0.00 | 0.00 | 0.00 | 86 | 1012.8 |
| 20260505030204 | 71 | 140 | 0.0 | 1.0 | 0.00 | 0.00 | 0.00 | 86 | 1012.7 |
| 20260505025700 | 71 | 121 | 1.0 | 1.0 | 0.00 | 0.00 | 0.00 | 86 | 1012.7 |
| 20260505025159 | 71 | 134 | 0.0 | 1.0 | 0.00 | 0.00 | 0.00 | 85 | 1012.7 |
| 20260505024657 | 71 | 138 | 2.0 | 2.0 | 0.00 | 0.00 | 0.00 | 85 | 1012.9 |
| 20260505024153 | 71 | 162 | 2.0 | 3.0 | 0.00 | 0.00 | 0.00 | 85 | 1012.7 |
| 20260505023651 | 71 | 145 | 1.0 | 1.0 | 0.00 | 0.00 | 0.00 | 85 | 1012.6 |
| 20260505023148 | 71 | 147 | 0.0 | 0.0 | 0.00 | 0.00 | 0.00 | 84 | 1012.7 |
| 20260505022645 | 72 | 153 | 0.0 | 0.0 | 0.00 | 0.00 | 0.00 | 84 | 1012.7 |
| 20260505022142 | 72 | 134 | 2.0 | 3.0 | 0.00 | 0.00 | 0.00 | 84 | 1012.6 |
| 20260505021639 | 72 | 161 | 0.0 | 0.0 | 0.00 | 0.00 | 0.00 | 83 | 1012.7 |
| 20260505021136 | 72 | 149 | 3.0 | 5.0 | 0.00 | 0.00 | 0.00 | 83 | 1012.7 |
| 20260505020631 | 72 | 144 | 1.0 | 1.0 | 0.00 | 0.00 | 0.00 | 83 | 1012.7 |
| 20260505020128 | 72 | 169 | 3.0 | 3.0 | 0.00 | 0.00 | 0.00 | 83 | 1012.5 |
| 20260505015625 | 72 | 154 | 2.0 | 3.0 | 0.00 | 0.00 | 0.00 | 83 | 1012.4 |
| 20260505015121 | 72 | 158 | 1.0 | 1.0 | 0.00 | 0.00 | 0.00 | 82 | 1012.6 |
| 20260505014618 | 72 | 157 | 1.0 | 2.0 | 0.00 | 0.00 | 0.00 | 82 | 1012.4 |
| 20260505014115 | 72 | 148 | 1.0 | 2.0 | 0.00 | 0.00 | 0.00 | 82 | 1012.5 |
| 20260505013613 | 72 | 151 | 1.0 | 1.0 | 0.00 | 0.00 | 0.00 | 82 | 1012.3 |
| 20260505013110 | 72 | 153 | 1.0 | 2.0 | 0.00 | 0.00 | 0.00 | 81 | 1012.8 |
| 20260505012608 | 73 | 155 | 1.0 | 2.0 | 0.00 | 0.00 | 0.00 | 81 | 1012.6 |
| 20260505012105 | 73 | 150 | 1.0 | 1.0 | 0.00 | 0.00 | 0.00 | 81 | 1012.4 |
| 20260505011600 | 73 | 159 | 1.0 | 2.0 | 0.00 | 0.00 | 0.00 | 80 | 1012.3 |
| 20260505011058 | 73 | 146 | 2.0 | 3.0 | 0.00 | 0.00 | 0.00 | 80 | 1012.4 |
| 20260505010558 | 73 | 165 | 1.0 | 1.0 | 0.00 | 0.00 | 0.00 | 80 | 1012.4 |
| 20260505010055 | 73 | 158 | 1.0 | 1.0 | 0.00 | 0.00 | 0.00 | 79 | 1012.4 |
| 20260505005552 | 73 | 132 | 1.0 | 1.0 | 0.00 | 0.00 | 0.00 | 79 | 1012.5 |
| 20260505005049 | 73 | 142 | 1.0 | 1.0 | 0.00 | 0.00 | 0.00 | 79 | 1012.3 |
| 20260505004546 | 74 | 140 | 2.0 | 3.0 | 0.00 | 0.00 | 0.00 | 79 | 1012.3 |
| 20260505004043 | 74 | 164 | 0.0 | 1.0 | 0.00 | 0.00 | 0.00 | 78 | 1012.2 |
| 20260505003540 | 74 | 151 | 2.0 | 3.0 | 0.00 | 0.00 | 0.00 | 78 | 1012.0 |
| 20260505003037 | 74 | 150 | 2.0 | 2.0 | 0.00 | 0.00 | 0.00 | 77 | 1012.3 |
| 20260505002537 | 75 | 85 | 3.0 | 3.0 | 0.00 | 0.00 | 0.00 | 76 | 1012.2 |
| 20260505002037 | 75 | 169 | 3.0 | 5.0 | 0.00 | 0.00 | 0.00 | 76 | 1012.4 |
| 20260505001534 | 75 | 151 | 2.0 | 3.0 | 0.00 | 0.00 | 0.00 | 75 | 1012.4 |
| 20260505001031 | 76 | 146 | 2.0 | 3.0 | 0.00 | 0.00 | 0.00 | 74 | 1012.6 |
| 20260505000528 | 77 | 153 | 1.0 | 1.0 | 0.00 | 0.00 | 0.00 | 73 | 1012.6 |
| 20260505000026 | 78 | 138 | 6.0 | 8.0 | 0.00 | 0.00 | 0.00 | 71 | 1012.6 |
| 20260504235522 | 78 | 164 | 2.0 | 2.0 | 0.00 | 0.00 | 0.00 | 70 | 1012.4 |
| 20260504235019 | 78 | 158 | 2.0 | 3.0 | 0.00 | 0.00 | 0.00 | 70 | 1012.5 |
| 20260504234516 | 78 | 168 | 4.0 | 7.0 | 0.00 | 0.00 | 0.00 | 69 | 1012.6 |
| 20260504234013 | 79 | 128 | 1.0 | 2.0 | 0.00 | 0.00 | 0.00 | 68 | 1012.6 |
| 20260504233508 | 79 | 149 | 2.0 | 2.0 | 0.00 | 0.00 | 0.00 | 68 | 1012.6 |
| 20260504233006 | 80 | 149 | 1.0 | 1.0 | 0.00 | 0.00 | 0.00 | 68 | 1012.7 |
| 20260504232502 | 80 | 162 | 3.0 | 5.0 | 0.00 | 0.00 | 0.00 | 67 | 1012.8 |
| 20260504232000 | 79 | 153 | 4.0 | 6.0 | 0.00 | 0.00 | 0.00 | 68 | 1012.8 |
| 20260504231456 | 80 | 132 | 4.0 | 5.0 | 0.00 | 0.00 | 0.00 | 66 | 1012.9 |
| 20260504230953 | 79 | 161 | 2.0 | 3.0 | 0.00 | 0.00 | 0.00 | 68 | 1013.1 |
| 20260504230449 | 77 | 146 | 3.0 | 5.0 | 0.00 | 0.00 | 0.00 | 71 | 1012.9 |
| 20260504225948 | 77 | 163 | 4.0 | 6.0 | 0.00 | 0.00 | 0.00 | 71 | 1013.1 |
| 20260504225444 | 78 | 173 | 2.0 | 2.0 | 0.00 | 0.00 | 0.00 | 70 | 1013.1 |
| 20260504224942 | 78 | 183 | 2.0 | 3.0 | 0.00 | 0.00 | 0.00 | 70 | 1013.1 |
| 20260504224438 | 79 | 154 | 2.0 | 2.0 | 0.00 | 0.00 | 0.00 | 69 | 1013.1 |
| 20260504223936 | 79 | 157 | 2.0 | 3.0 | 0.00 | 0.00 | 0.00 | 69 | 1013.2 |
| 20260504223431 | 78 | 136 | 3.0 | 3.0 | 0.00 | 0.00 | 0.00 | 69 | 1013.4 |
| 20260504222927 | 78 | 135 | 3.0 | 3.0 | 0.00 | 0.00 | 0.00 | 70 | 1013.4 |
| 20260504222425 | 78 | 161 | 3.0 | 5.0 | 0.00 | 0.00 | 0.00 | 70 | 1013.6 |
| 20260504221922 | 78 | 149 | 3.0 | 3.0 | 0.00 | 0.00 | 0.00 | 70 | 1013.6 |
| 20260504221419 | 78 | 169 | 2.0 | 3.0 | 0.00 | 0.00 | 0.00 | 70 | 1013.5 |
| 20260504220916 | 78 | 165 | 3.0 | 3.0 | 0.00 | 0.00 | 0.00 | 70 | 1013.8 |
| 20260504220413 | 78 | 130 | 3.0 | 3.0 | 0.00 | 0.00 | 0.00 | 70 | 1013.6 |
| 20260504215910 | 78 | 128 | 3.0 | 5.0 | 0.00 | 0.00 | 0.00 | 69 | 1013.7 |
| 20260504215406 | 79 | 151 | 2.0 | 3.0 | 0.00 | 0.00 | 0.00 | 68 | 1013.6 |
| 20260504214902 | 78 | 134 | 3.0 | 3.0 | 0.00 | 0.00 | 0.00 | 68 | 1013.7 |
| 20260504214359 | 78 | 140 | 2.0 | 3.0 | 0.00 | 0.00 | 0.00 | 68 | 1013.8 |
| 20260504213856 | 78 | 129 | 4.0 | 6.0 | 0.00 | 0.00 | 0.00 | 68 | 1014.0 |
| 20260504213352 | 78 | 212 | 3.0 | 3.0 | 0.00 | 0.00 | 0.00 | 68 | 1014.0 |
| 20260504212849 | 78 | 150 | 1.0 | 1.0 | 0.00 | 0.00 | 0.00 | 68 | 1013.9 |
| 20260504212345 | 78 | 151 | 1.0 | 2.0 | 0.00 | 0.00 | 0.00 | 68 | 1014.0 |
| 20260504211844 | 79 | 153 | 5.0 | 6.0 | 0.00 | 0.00 | 0.00 | 67 | 1013.9 |
| 20260504211339 | 79 | 131 | 3.0 | 3.0 | 0.00 | 0.00 | 0.00 | 67 | 1014.2 |
| 20260504210837 | 80 | 164 | 3.0 | 3.0 | 0.00 | 0.00 | 0.00 | 65 | 1014.3 |
| 20260504210334 | 81 | 138 | 1.0 | 2.0 | 0.00 | 0.00 | 0.00 | 65 | 1014.3 |
| 20260504205831 | 82 | 160 | 4.0 | 6.0 | 0.00 | 0.00 | 0.00 | 64 | 1014.3 |
| 20260504205329 | 81 | 214 | 2.0 | 5.0 | 0.00 | 0.00 | 0.00 | 64 | 1014.3 |
| 20260504204827 | 81 | 163 | 4.0 | 6.0 | 0.00 | 0.00 | 0.00 | 65 | 1014.4 |
| 20260504204325 | 81 | 160 | 2.0 | 5.0 | 0.00 | 0.00 | 0.00 | 65 | 1014.3 |
| 20260504203824 | 81 | 145 | 3.0 | 3.0 | 0.00 | 0.00 | 0.00 | 64 | 1014.4 |
| 20260504203320 | 82 | 168 | 4.0 | 6.0 | 0.00 | 0.00 | 0.00 | 62 | 1014.6 |
| 20260504202816 | 82 | 129 | 2.0 | 2.0 | 0.00 | 0.00 | 0.00 | 63 | 1014.6 |
| 20260504202314 | 83 | 127 | 2.0 | 5.0 | 0.00 | 0.00 | 0.00 | 64 | 1014.6 |
| 20260504201810 | 81 | 140 | 6.0 | 8.0 | 0.00 | 0.00 | 0.00 | 64 | 1014.8 |
| 20260504201308 | 82 | 190 | 5.0 | 7.0 | 0.00 | 0.00 | 0.00 | 62 | 1014.7 |
| 20260504200805 | 82 | 165 | 2.0 | 3.0 | 0.00 | 0.00 | 0.00 | 63 | 1014.7 |
| 20260504200301 | 81 | 136 | 2.0 | 3.0 | 0.00 | 0.00 | 0.00 | 63 | 1014.8 |
| 20260504195757 | 83 | 148 | 3.0 | 6.0 | 0.00 | 0.00 | 0.00 | 61 | 1015.0 |
| 20260504195253 | 82 | 131 | 3.0 | 3.0 | 0.00 | 0.00 | 0.00 | 61 | 1014.8 |
| 20260504194750 | 81 | 123 | 4.0 | 5.0 | 0.00 | 0.00 | 0.00 | 63 | 1015.0 |
| 20260504194246 | 83 | 153 | 2.0 | 6.0 | 0.00 | 0.00 | 0.00 | 61 | 1015.2 |
| 20260504193743 | 83 | 148 | 3.0 | 5.0 | 0.00 | 0.00 | 0.00 | 60 | 1015.3 |
| 20260504193241 | 83 | 154 | 3.0 | 6.0 | 0.00 | 0.00 | 0.00 | 62 | 1015.3 |
| 20260504192739 | 84 | 183 | 2.0 | 3.0 | 0.00 | 0.00 | 0.00 | 60 | 1015.3 |
| 20260504192237 | 83 | 164 | 1.0 | 3.0 | 0.00 | 0.00 | 0.00 | 63 | 1015.3 |
| 20260504191735 | 82 | 189 | 3.0 | 6.0 | 0.00 | 0.00 | 0.00 | 60 | 1015.5 |
| 20260504191232 | 82 | 166 | 3.0 | 5.0 | 0.00 | 0.00 | 0.00 | 61 | 1015.3 |
| 20260504190727 | 81 | 178 | 5.0 | 6.0 | 0.00 | 0.00 | 0.00 | 64 | 1015.3 |
| 20260504190224 | 82 | 119 | 4.0 | 5.0 | 0.00 | 0.00 | 0.00 | 59 | 1015.6 |
| 20260504185720 | 82 | 148 | 3.0 | 3.0 | 0.00 | 0.00 | 0.00 | 63 | 1015.5 |
| 20260504185217 | 82 | 177 | 2.0 | 3.0 | 0.00 | 0.00 | 0.00 | 62 | 1015.4 |
| 20260504184713 | 82 | 178 | 4.0 | 9.0 | 0.00 | 0.00 | 0.00 | 61 | 1015.5 |
| 20260504184209 | 82 | 171 | 4.0 | 6.0 | 0.00 | 0.00 | 0.00 | 61 | 1015.6 |
| 20260504183705 | 82 | 207 | 4.0 | 6.0 | 0.00 | 0.00 | 0.00 | 62 | 1015.6 |
| 20260504183202 | 82 | 150 | 3.0 | 5.0 | 0.00 | 0.00 | 0.00 | 60 | 1015.7 |
| 20260504182700 | 82 | 148 | 2.0 | 3.0 | 0.00 | 0.00 | 0.00 | 63 | 1015.7 |
| 20260504182157 | 82 | 161 | 6.0 | 7.0 | 0.00 | 0.00 | 0.00 | 63 | 1015.8 |
| 20260504181655 | 82 | 146 | 5.0 | 6.0 | 0.00 | 0.00 | 0.00 | 61 | 1015.7 |
| 20260504181152 | 81 | 160 | 4.0 | 5.0 | 0.00 | 0.00 | 0.00 | 62 | 1016.0 |
| 20260504180651 | 82 | 187 | 5.0 | 7.0 | 0.00 | 0.00 | 0.00 | 61 | 1015.9 |
| 20260504180149 | 82 | 164 | 5.0 | 6.0 | 0.00 | 0.00 | 0.00 | 61 | 1016.0 |
| 20260504175646 | 83 | 160 | 4.0 | 6.0 | 0.00 | 0.00 | 0.00 | 60 | 1016.1 |
| 20260504175143 | 83 | 199 | 3.0 | 3.0 | 0.00 | 0.00 | 0.00 | 57 | 1016.2 |
| 20260504174641 | 82 | 158 | 3.0 | 5.0 | 0.00 | 0.00 | 0.00 | 61 | 1016.2 |
| 20260504174137 | 81 | 154 | 3.0 | 5.0 | 0.00 | 0.00 | 0.00 | 59 | 1016.4 |
| 20260504173635 | 81 | 174 | 2.0 | 3.0 | 0.00 | 0.00 | 0.00 | 59 | 1016.4 |
| 20260504173132 | 82 | 185 | 5.0 | 9.0 | 0.00 | 0.00 | 0.00 | 58 | 1016.6 |
| 20260504172628 | 82 | 164 | 5.0 | 6.0 | 0.00 | 0.00 | 0.00 | 59 | 1016.5 |
| 20260504172125 | 82 | 156 | 4.0 | 8.0 | 0.00 | 0.00 | 0.00 | 60 | 1016.5 |
| 20260504171621 | 82 | 161 | 1.0 | 2.0 | 0.00 | 0.00 | 0.00 | 59 | 1016.7 |
| 20260504171119 | 83 | 138 | 6.0 | 7.0 | 0.00 | 0.00 | 0.00 | 59 | 1016.7 |
| 20260504170615 | 84 | 119 | 5.0 | 7.0 | 0.00 | 0.00 | 0.00 | 58 | 1016.8 |
| 20260504170113 | 84 | 145 | 5.0 | 7.0 | 0.00 | 0.00 | 0.00 | 59 | 1016.8 |
| 20260504150958 | 79 | 164 | 5.0 | 7.0 | 0.00 | 0.00 | 0.00 | 63 | 1017.3 |
| 20260504150455 | 80 | 157 | 3.0 | 3.0 | 0.00 | 0.00 | 0.00 | 63 | 1017.5 |
| 20260504140921 | 75 | 170 | 2.0 | 3.0 | 0.00 | 0.00 | 0.00 | 71 | 1016.9 |
| 20260504140418 | 75 | 154 | 2.0 | 2.0 | 0.00 | 0.00 | 0.00 | 73 | 1017.1 |
| 20260504130343 | 63 | 142 | 0.0 | 0.0 | 0.00 | 0.00 | 0.00 | 95 | 1017.0 |